Showing default

OPS 9333 (IDSCS 18), 2864

Orbit data source: Space-Track

OPS 9333 (IDSCS 18), 2864 is a payload satellite owned by SAMSO (US) in GEO that was launched on Sat, 01 Jul 1967 UTC via a TITAN IIIC launch vehicle from the Air Force Eastern Test Range (AFETR). Payloads include a variety of satellites, spacecraft, and rockets equipped with specific instruments for various scientific and technological missions. These include communications satellites like Starlink; space stations such as the ISS; scientific satellites like the Hubble; Earth observation satellites from companies like Planet Labs, Umbra, and HawkEye 360; GPS; miniature CubeSats for education and research; and military/defense satellites.

Not visible in the next 10 days
OPS 9333 (IDSCS 18) details
Identifier
2864, 1967-066C
Orbit
GEO
Last TLE update2 days ago
Origin
Flag of USSAMSO (US)
ManufacturerPhilco-Ford WDL
MissionNon-operational Defense Communications
Bus & MotorIDCSP, Unknown motor
Mass45 kg wet, 45 kg dry
Launch date (UTC)
1967-07-01 (57 years ago)
Launch vehicle
TITAN IIIC
Launch site
Air Force Eastern Test Range (AFETR)
Object type
Payload
Rocket body
Debris
Shape & HBRPoly, 0.9 m
Radar Cross Section0.926 m², Medium (>0.1 m² and < 1m²)

Expand to show TLE details & history

TLE from 2 days ago
0 OPS 9333 (IDSCS 18)
1 02864U 67066C   24354.95305448 -.00000047  00000-0  00000-0 0  9993
2 02864   1.5686 117.7949 0059966 201.2004 100.0407  1.09785664125567
Epoch: 2024-12-19T22:52Z
Definitive object data (Epoch: 2024-12-19T22:52:23.907Z)
Latitude-1.31613°
Longitude-12.39864°
Altitude33,357.498 km
Speed3.166 km/s
True Right ascension03h 58m 54s
True Declination-1° 18' 53"
Sunlit
Object was in daylight at TLE epoch
Visualization TLE readout
Latitude-0.40164°
Longitude-120.12333°
Altitude33,077.137 km
Speed3.188 km/s
Apparent Right ascension21h 02m 46s
Apparent Declination-5° 41' 56"
Sunlit
Object is in daylight
Visualization observer readout
Local Sidereal Time11:07:41
Azimuth47.678° ENE
Elevation-45.751°
Doppler factor1
Orbital elements
Apogee altitude33,553.182 km
Perigee altitude33,077.133 km
Semi-major axis39,693.295 km
Eccentricity0.0059966
Inclination1.5686°
RAAN117.7949°
Arg. of periapsis201.2004°
True anomaly100.71644°
Mean anomaly100.0407°
Eccentric anomaly100.37866°
Mean motion0.27445 °/min
BSTARUnknown
Orbital period1311.7 mins
Loading historical data...
2864 neighbors
Authenticating...
Loading maneuver chart data...
Loading historical data...
Loading historical data...
Loading historical data...
Loading historical data...
Loading historical data...
Loading historical data...
Loading historical data...

OPS 9333 (IDSCS 18) Visibility forecast

Observer location: undefined°, undefined

OPS 9333 (IDSCS 18) is not visible in the next 10 days
Span
Click to sort rows by Start time (UTC) header in descending order
Start Az.
Max El. time (UTC)
Max El. Az.
Max El.
End time (UTC)
End Az.
|